SCP
0 0 0 0 0 0 0 0 0 1 1 1 1 1 1 1 1 2 2 2 1 1 1 1 1 1 0 0 1 1 1 1 1 0 0 0 0 0 0 0 0 0 0
0 0 0 0 0 0 0 0 0 1 2 1 1 1 1 1 1 1 2 2 1 1 1 1 1 1 0 1 1 1 1 1 0 0 0 0 0 0 0 0 0 0 0
0 0 0 0 0 0 0 0 0 1 2 1 1 2 2 1 1 2 2 2 1 1 1 1 1 1 1 1 1 1 1 1 0 0 0 0 0 0 0 0 0 0 0
0 0 0 0 0 0 0 0 0 0 0 0 1 1 1 1 1 1 2 2 1 1 1 1 1 1 1 1 1 1 1 0 0 0 0 0 0 0 0 0 0 0 0
0 0 0 0 0 0 0 0 0 0 0 0 0 1 1 2 2 2 2 2 2 1 1 1 1 1 1 1 1 1 0 0 0 0 0 0 0 0 0 0 0 0 0
0 0 0 0 0 0 0 0 0 0 0 0 0 0 1 2 2 2 2 2 2 2 1 1 1 1 1 1 1 0 0 0 0 0 0 0 0 0 0 0 0 0 0
0 0 0 0 0 0 0 0 0 0 0 1 1 1 1 1 1 1 1 1 1 1 1 1 1 1 1 0 0 0 0 0 0 0 0 0 0 0 0 0 0 0 0
0 0 0 0 0 0 0 0 0 0 1 1 1 1 1 1 1 1 1 1 1 1 1 1 1 1 0 0 0 0 0 0 0 0 0 0 0 0 0 0 0 0 0
0 0 0 0 0 0 0 0 0 1 0 1 1 1 1 0 1 1 1 1 1 1 1 1 1 0 0 0 0 0 0 0 0 0 0 0 0 0 0 0 0 0 0
0 0 0 0 0 0 0 0 0 0 0 1 1 1 0 0 0 1 1 1 1 1 1 0 0 0 0 0 0 0 0 0 0 0 0 0 0 0 0 0 0 0 0
0 0 0 0 0 0 0 0 0 0 1 0 0 0 0 0 0 0 1 1 1 0 0 0 0 0 0 0 0 0 0 0 0 0 0 0 -0 -0 -0 0 0 0 0
0 0 0 0 1 0 0 0 0 0 0 0 0 0 0 0 0 0 0 0 0 0 0 0 0 0 0 0 0 0 0 0 0 0 0 0 0 -0 0 0 -0 0 0
0 0 0 0 1 0 0 0 0 0 0 0 0 0 0 0 0 0 0 0 0 0 0 0 0 0 0 0 0 0 0 0 0 0 0 0 -0 -0 0 -0 0 0 0
0 0 0 0 0 0 0 0 0 0 0 0 0 0 0 0 0 0 0 0 0 0 0 0 0 0 0 0 0 0 0 0 0 0 0 0 0 -0 -0 -0 -0 0 0
0 0 0 1 0 0 0 0 0 0 0 0 0 0 0 0 0 0 0 0 0 0 0 0 0 0 0 0 0 0 0 0 -0 0 0 0 -0 -0 -0 0 0 -0 -0
0 0 0 0 0 0 0 0 0 0 0 0 0 0 0 0 0 0 0 0 0 0 0 0 0 -0 0 0 0 0 0 0 -0 0 0 -0 -0 0 0 0 0 -0 -0
0 0 0 1 0 0 0 0 0 0 0 0 0 0 0 0 0 0 0 0 0 0 0 -0 0 0 0 0 0 0 0 -0 0 0 0 0 -0 0 0 0 0 0 -0
0 0 0 1 0 0 0 0 0 0 0 0 0 0 0 0 0 0 0 0 0 0 -0 -0 0 0 0 0 0 0 0 0 0 0 0 0 0 0 0 0 0 0 0
0 0 1 1 0 0 0 0 0 0 0 0 -0 0 0 0 0 0 0 0 0 0 0 0 0 0 0 0 0 0 0 0 0 0 0 0 0 -0 -0 0 0 0 0
0 0 1 1 0 0 -0 0 0 0 0 -0 -0 0 -0 -0 0 0 0 0 -0 0 0 -0 -0 0 0 0 0 0 0 0 0 0 0 0 0 -0 -0 0 0 0 0
0 0 1 1 0 0 0 0 0 0 0 -0 -0 -0 -0 -0 0 -0 -0 -0 -0 -0 -0 -0 0 0 0 0 0 0 0 0 0 0 0 0 -0 -0 0 0 0 0 0
0 1 1 1 0 0 0 0 0 0 0 -0 -0 -0 -0 0 0 -0 -0 -0 -0 -0 0 0 0 0 0 0 0 0 0 0 0 0 0 -0 -0 0 -0 0 0 0 0
1 1 0 1 0 0 0 0 0 0 0 -0 -0 -0 -0 0 -0 -0 -0 -0 -0 0 0 0 0 0 0 0 0 0 0 0 0 0 -0 -0 -0 -0 -0 0 0 0 0
1 1 1 0 0 0 0 0 0 0 0 -0 -0 -0 0 0 -0 -0 -0 -0 0 0 0 -0 0 0 0 0 0 0 0 0 -0 -0 -0 -0 -0 -0 -0 0 0 0 0
1 1 1 1 0 0 0 0 0 0 0 -0 -0 -0 -0 0 -0 -0 -0 0 0 0 0 -0 0 -0 -0 -0 0 0 0 0 0 -0 0 0 0 0 0 0 0 0 0
1 1 1 1 0 0 0 0 0 0 0 0 -0 -0 -0 -0 -0 -0 -0 -0 -0 0 -0 -0 0 0 -0 -0 -0 -0 -0 -0 0 0 -0 0 0 0 0 0 0 0 0
Wind_Speed_500mb
56 54 50 46 43 53 55 53 56 52 54 51 37 37 39 37 36 37 38 37 33 32 34 31 33 30 33 32 34 25 23 23 26 22 24 24 24 29 27 30 31 35 36
56 54 52 50 50 52 51 44 44 50 49 49 39 33 31 32 31 30 33 33 30 32 32 34 28 27 28 32 30 28 22 22 23 16 13 18 15 19 22 22 19 23 29
62 59 59 54 48 47 48 47 45 43 44 42 40 35 33 28 30 30 29 33 29 33 34 34 29 29 29 30 29 27 24 19 26 23 19 11 8 8 10 20 20 23 26
52 54 59 60 59 58 53 52 53 51 46 43 37 35 30 28 26 27 28 27 32 35 37 37 30 28 28 30 27 23 22 21 16 18 22 22 13 7 7 10 15 21 21
56 59 58 58 59 56 49 47 54 53 52 44 35 35 31 27 26 30 31 32 36 35 34 35 33 33 28 31 24 22 21 18 20 19 15 20 16 17 11 8 11 16 19
36 33 38 41 45 46 43 42 45 51 48 38 33 34 35 32 34 34 35 32 31 31 34 32 32 29 29 29 24 24 21 19 21 20 20 15 13 18 16 11 8 16 20
16 21 24 28 31 37 37 31 43 45 41 33 33 37 35 34 34 35 34 35 32 29 35 34 32 28 27 25 23 22 18 19 19 18 17 18 18 13 15 13 7 8 12
14 18 25 27 25 28 35 31 33 35 35 35 38 39 38 33 32 32 31 29 27 27 31 30 26 24 22 21 21 16 17 19 17 19 18 18 18 19 15 11 11 11 10
22 26 26 21 21 24 32 34 34 35 37 40 42 43 37 34 34 33 35 30 28 27 26 25 23 23 20 20 19 17 16 17 19 21 20 21 16 25 21 14 6 9 9
29 35 26 14 10 21 26 32 36 41 42 42 41 38 36 34 36 37 31 28 27 25 24 23 21 20 20 20 19 16 16 19 17 14 19 19 18 34 25 21 17 7 9
33 36 28 9 9 22 29 36 41 44 44 42 41 40 38 37 35 30 27 24 24 22 19 19 19 20 21 21 17 18 20 16 15 15 15 14 17 24 30 26 20 20 15
35 35 28 10 12 26 33 39 41 43 43 42 41 41 39 35 31 27 24 22 20 19 19 20 20 21 20 19 17 18 16 17 13 14 11 15 20 20 28 23 25 22 16
39 35 29 7 14 27 35 39 42 42 42 43 43 40 36 31 28 25 22 21 22 22 20 21 21 20 20 18 18 16 16 13 13 11 11 15 20 24 26 24 22 18 18
40 35 27 5 16 28 36 39 41 41 43 41 38 35 32 30 28 25 24 24 24 23 22 21 20 20 20 19 16 15 14 11 9 7 4 10 17 23 25 21 19 24 25
38 34 30 4 18 30 37 40 41 42 42 39 34 32 30 28 28 26 24 25 25 23 23 23 22 20 18 16 16 14 12 12 11 6 5 5 13 24 26 19 19 30 27
40 34 27 4 24 32 38 41 42 43 40 37 34 30 28 29 28 26 24 25 27 26 26 25 22 21 15 14 10 12 13 14 12 9 8 4 9 14 22 26 27 31 32
42 39 26 14 31 38 40 44 44 42 39 36 34 30 29 29 26 24 23 25 30 28 26 25 25 19 16 12 6 10 14 13 11 14 13 10 9 12 14 23 29 34 25
40 30 26 12 36 41 43 44 44 42 40 37 33 29 30 28 26 24 22 25 29 28 28 26 25 18 14 11 7 11 10 12 12 15 15 14 14 10 14 21 25 27 22
35 32 26 18 40 47 48 48 46 43 41 39 34 30 30 28 25 25 24 24 28 28 26 28 24 20 15 10 10 13 9 11 12 12 12 19 21 24 21 17 22 28 30
33 31 21 27 47 52 52 53 50 47 45 41 35 29 31 27 23 22 23 22 22 26 26 29 23 17 16 15 14 19 12 12 11 10 6 3 12 21 27 24 25 34 31
36 27 19 35 50 51 55 55 51 48 45 42 36 31 29 26 22 20 19 22 24 27 29 25 20 15 18 16 14 18 15 11 11 11 11 8 11 15 22 24 29 39 34
31 21 27 39 52 54 57 55 51 48 46 43 37 36 32 26 21 20 19 20 23 26 27 22 17 14 19 14 17 18 14 12 11 13 14 9 11 16 19 25 30 46 42
26 19 32 43 51 55 57 55 51 51 49 44 40 38 30 25 22 19 17 16 19 22 21 20 19 14 16 17 15 12 15 16 15 16 14 13 15 14 20 25 33 53 49
20 26 38 48 51 56 54 49 51 52 50 46 43 38 30 25 22 17 13 14 16 21 19 20 21 18 21 19 14 9 9 12 14 17 18 20 17 21 25 37 39 45 49
18 34 41 48 51 57 53 49 51 52 51 47 43 37 29 25 23 19 16 13 17 17 22 19 19 21 20 19 15 11 14 16 16 24 31 28 25 30 35 35 41 45 46
30 33 38 46 51 53 51 51 50 52 50 47 44 40 32 26 23 19 19 23 19 22 28 22 20 18 19 18 16 16 17 17 22 34 31 28 29 33 32 30 34 37 41
Wind_Direction_500mb
259 264 265 267 267 273 277 272 265 266 274 286 270 253 247 235 220 219 226 228 225 218 221 207 214 207 210 213 218 221 233 240 258 271 273 275 271 256 249 247 238 226 215
261 263 267 266 267 267 270 279 275 265 260 271 270 245 228 215 211 214 227 221 218 212 205 195 192 197 200 205 213 213 227 249 259 248 258 273 230 243 240 240 234 229 213
263 266 265 266 267 264 270 273 279 277 267 262 259 239 219 215 202 206 210 209 201 198 189 186 180 195 190 215 210 221 233 240 256 240 240 267 264 214 235 231 225 233 218
260 265 271 273 272 272 269 266 266 268 268 261 239 230 207 199 200 193 186 192 187 184 183 184 188 192 192 214 215 226 238 241 243 240 240 235 253 260 217 229 232 222 213
263 268 272 273 269 263 259 254 249 255 262 253 231 225 195 197 178 169 182 173 180 181 181 186 195 196 196 224 220 229 242 239 228 230 238 236 237 247 247 227 208 206 208
263 262 272 273 263 251 244 239 240 241 246 237 225 204 188 180 169 167 162 163 169 174 185 190 191 201 210 224 232 239 244 217 225 229 229 233 236 241 234 229 200 193 192
261 275 275 277 259 239 222 218 220 225 225 216 200 187 183 176 173 166 161 163 170 175 190 190 199 212 220 224 237 243 220 225 228 229 228 230 237 228 222 206 210 181 154
327 300 298 283 247 230 209 201 199 199 197 187 176 169 167 160 159 158 165 164 169 175 195 195 206 209 215 226 232 224 220 227 224 219 214 218 216 197 212 209 212 184 156
349 336 320 292 242 216 201 195 186 179 170 164 161 160 153 151 158 159 156 162 168 185 184 191 200 210 220 218 218 210 221 214 211 217 223 224 226 200 209 211 228 198 172
351 350 341 323 214 189 180 172 169 164 157 155 155 154 154 154 157 160 155 160 171 171 189 197 208 210 205 203 204 218 216 209 221 221 234 241 226 218 213 217 225 189 225
352 355 350 346 178 169 162 157 156 153 151 151 149 146 145 147 151 155 160 170 185 189 191 198 199 196 194 195 198 201 212 213 214 233 237 232 216 212 217 221 212 236 226
351 359 360 13 159 156 153 152 152 151 151 149 146 146 144 148 150 154 161 173 175 181 185 181 184 183 189 195 194 196 211 213 224 243 228 224 212 201 202 207 209 213 197
347 353 4 19 151 156 154 153 151 150 147 147 147 145 146 150 152 155 159 162 167 165 171 173 177 181 187 188 191 208 213 219 221 221 233 234 208 198 204 212 203 196 178
334 345 358 354 154 162 158 155 153 151 148 149 148 147 148 150 150 152 154 161 161 163 171 172 171 178 177 180 195 211 209 197 188 222 276 233 213 211 195 198 183 180 157
323 336 345 326 175 166 161 157 154 152 151 150 148 148 151 149 149 152 159 163 162 163 166 163 165 173 177 182 199 200 178 170 162 157 147 87 191 185 187 185 181 163 159
316 321 324 261 192 172 163 160 157 156 154 150 152 154 153 150 152 155 161 165 165 166 168 169 166 167 169 184 183 171 163 164 165 163 171 127 115 166 187 188 178 167 177
306 310 306 269 196 177 167 161 160 158 156 154 154 156 157 154 155 158 169 174 176 171 169 169 163 176 178 170 180 182 160 168 182 187 185 169 177 162 171 183 181 178 184
300 305 307 247 189 176 166 163 164 162 159 156 154 156 156 156 158 166 173 180 177 168 168 164 163 166 171 183 208 182 181 175 171 178 192 209 199 179 163 161 159 174 174
295 298 296 222 184 174 168 166 167 165 161 158 153 151 155 155 160 169 174 171 171 169 167 170 172 173 186 201 193 148 190 168 160 167 210 217 225 209 186 175 162 166 161
296 295 287 191 181 172 168 168 169 166 163 160 157 153 154 155 155 169 168 162 170 172 166 175 173 187 196 202 204 171 156 172 178 185 205 218 215 208 195 194 186 173 176
295 289 236 187 179 171 170 170 169 168 164 161 158 156 156 156 159 156 166 160 162 163 163 165 178 193 175 199 184 182 181 187 191 200 203 197 189 190 196 199 195 188 169
291 272 197 181 177 172 171 171 171 167 164 161 158 157 155 152 155 152 159 167 164 165 165 162 165 164 182 190 175 186 204 211 222 204 195 190 179 182 199 190 188 183 170
284 236 184 178 175 173 174 171 170 167 165 163 162 162 162 160 162 155 151 168 170 163 166 179 180 175 181 187 186 213 218 219 224 209 183 178 165 164 160 161 161 173 166
271 200 180 174 171 173 174 172 168 167 166 165 166 168 166 168 167 164 154 170 183 170 174 179 182 182 189 189 197 204 191 179 191 186 173 166 148 145 147 154 162 170 168
224 183 177 171 172 171 172 171 167 168 168 168 170 171 172 168 167 162 163 169 190 180 177 171 179 180 189 195 204 200 182 174 174 163 159 153 148 148 140 151 168 168 168
176 170 167 168 169 168 170 170 169 170 171 172 176 177 177 173 170 171 165 176 185 171 162 172 172 177 192 194 188 174 162 161 152 159 158 148 150 153 151 155 161 167 170
Wind_Speed_850mb
56 54 50 46 43 53 55 53 56 52 54 51 37 37 39 37 36 37 38 37 33 32 34 31 33 30 33 32 34 25 23 23 26 22 24 24 24 29 27 30 31 35 36
56 54 52 50 50 52 51 44 44 50 49 49 39 33 31 32 31 30 33 33 30 32 32 34 28 27 28 32 30 28 22 22 23 16 13 18 15 19 22 22 19 23 29
62 59 59 54 48 47 48 47 45 43 44 42 40 35 33 28 30 30 29 33 29 33 34 34 29 29 29 30 29 27 24 19 26 23 19 11 8 8 10 20 20 23 26
52 54 59 60 59 58 53 52 53 51 46 43 37 35 30 28 26 27 28 27 32 35 37 37 30 28 28 30 27 23 22 21 16 18 22 22 13 7 7 10 15 21 21
56 59 58 58 59 56 49 47 54 53 52 44 35 35 31 27 26 30 31 32 36 35 34 35 33 33 28 31 24 22 21 18 20 19 15 20 16 17 11 8 11 16 19
36 33 38 41 45 46 43 42 45 51 48 38 33 34 35 32 34 34 35 32 31 31 34 32 32 29 29 29 24 24 21 19 21 20 20 15 13 18 16 11 8 16 20
16 21 24 28 31 37 37 31 43 45 41 33 33 37 35 34 34 35 34 35 32 29 35 34 32 28 27 25 23 22 18 19 19 18 17 18 18 13 15 13 7 8 12
14 18 25 27 25 28 35 31 33 35 35 35 38 39 38 33 32 32 31 29 27 27 31 30 26 24 22 21 21 16 17 19 17 19 18 18 18 19 15 11 11 11 10
22 26 26 21 21 24 32 34 34 35 37 40 42 43 37 34 34 33 35 30 28 27 26 25 23 23 20 20 19 17 16 17 19 21 20 21 16 25 21 14 6 9 9
29 35 26 14 10 21 26 32 36 41 42 42 41 38 36 34 36 37 31 28 27 25 24 23 21 20 20 20 19 16 16 19 17 14 19 19 18 34 25 21 17 7 9
33 36 28 9 9 22 29 36 41 44 44 42 41 40 38 37 35 30 27 24 24 22 19 19 19 20 21 21 17 18 20 16 15 15 15 14 17 24 30 26 20 20 15
35 35 28 10 12 26 33 39 41 43 43 42 41 41 39 35 31 27 24 22 20 19 19 20 20 21 20 19 17 18 16 17 13 14 11 15 20 20 28 23 25 22 16
39 35 29 7 14 27 35 39 42 42 42 43 43 40 36 31 28 25 22 21 22 22 20 21 21 20 20 18 18 16 16 13 13 11 11 15 20 24 26 24 22 18 18
40 35 27 5 16 28 36 39 41 41 43 41 38 35 32 30 28 25 24 24 24 23 22 21 20 20 20 19 16 15 14 11 9 7 4 10 17 23 25 21 19 24 25
38 34 30 4 18 30 37 40 41 42 42 39 34 32 30 28 28 26 24 25 25 23 23 23 22 20 18 16 16 14 12 12 11 6 5 5 13 24 26 19 19 30 27
40 34 27 4 24 32 38 41 42 43 40 37 34 30 28 29 28 26 24 25 27 26 26 25 22 21 15 14 10 12 13 14 12 9 8 4 9 14 22 26 27 31 32
42 39 26 14 31 38 40 44 44 42 39 36 34 30 29 29 26 24 23 25 30 28 26 25 25 19 16 12 6 10 14 13 11 14 13 10 9 12 14 23 29 34 25
40 30 26 12 36 41 43 44 44 42 40 37 33 29 30 28 26 24 22 25 29 28 28 26 25 18 14 11 7 11 10 12 12 15 15 14 14 10 14 21 25 27 22
35 32 26 18 40 47 48 48 46 43 41 39 34 30 30 28 25 25 24 24 28 28 26 28 24 20 15 10 10 13 9 11 12 12 12 19 21 24 21 17 22 28 30
33 31 21 27 47 52 52 53 50 47 45 41 35 29 31 27 23 22 23 22 22 26 26 29 23 17 16 15 14 19 12 12 11 10 6 3 12 21 27 24 25 34 31
36 27 19 35 50 51 55 55 51 48 45 42 36 31 29 26 22 20 19 22 24 27 29 25 20 15 18 16 14 18 15 11 11 11 11 8 11 15 22 24 29 39 34
31 21 27 39 52 54 57 55 51 48 46 43 37 36 32 26 21 20 19 20 23 26 27 22 17 14 19 14 17 18 14 12 11 13 14 9 11 16 19 25 30 46 42
26 19 32 43 51 55 57 55 51 51 49 44 40 38 30 25 22 19 17 16 19 22 21 20 19 14 16 17 15 12 15 16 15 16 14 13 15 14 20 25 33 53 49
20 26 38 48 51 56 54 49 51 52 50 46 43 38 30 25 22 17 13 14 16 21 19 20 21 18 21 19 14 9 9 12 14 17 18 20 17 21 25 37 39 45 49
18 34 41 48 51 57 53 49 51 52 51 47 43 37 29 25 23 19 16 13 17 17 22 19 19 21 20 19 15 11 14 16 16 24 31 28 25 30 35 35 41 45 46
30 33 38 46 51 53 51 51 50 52 50 47 44 40 32 26 23 19 19 23 19 22 28 22 20 18 19 18 16 16 17 17 22 34 31 28 29 33 32 30 34 37 41
Wind_Direction_850mb
259 264 265 267 267 273 277 272 265 266 274 286 270 253 247 235 220 219 226 228 225 218 221 207 214 207 210 213 218 221 233 240 258 271 273 275 271 256 249 247 238 226 215
261 263 267 266 267 267 270 279 275 265 260 271 270 245 228 215 211 214 227 221 218 212 205 195 192 197 200 205 213 213 227 249 259 248 258 273 230 243 240 240 234 229 213
263 266 265 266 267 264 270 273 279 277 267 262 259 239 219 215 202 206 210 209 201 198 189 186 180 195 190 215 210 221 233 240 256 240 240 267 264 214 235 231 225 233 218
260 265 271 273 272 272 269 266 266 268 268 261 239 230 207 199 200 193 186 192 187 184 183 184 188 192 192 214 215 226 238 241 243 240 240 235 253 260 217 229 232 222 213
263 268 272 273 269 263 259 254 249 255 262 253 231 225 195 197 178 169 182 173 180 181 181 186 195 196 196 224 220 229 242 239 228 230 238 236 237 247 247 227 208 206 208
263 262 272 273 263 251 244 239 240 241 246 237 225 204 188 180 169 167 162 163 169 174 185 190 191 201 210 224 232 239 244 217 225 229 229 233 236 241 234 229 200 193 192
261 275 275 277 259 239 222 218 220 225 225 216 200 187 183 176 173 166 161 163 170 175 190 190 199 212 220 224 237 243 220 225 228 229 228 230 237 228 222 206 210 181 154
327 300 298 283 247 230 209 201 199 199 197 187 176 169 167 160 159 158 165 164 169 175 195 195 206 209 215 226 232 224 220 227 224 219 214 218 216 197 212 209 212 184 156
349 336 320 292 242 216 201 195 186 179 170 164 161 160 153 151 158 159 156 162 168 185 184 191 200 210 220 218 218 210 221 214 211 217 223 224 226 200 209 211 228 198 172
351 350 341 323 214 189 180 172 169 164 157 155 155 154 154 154 157 160 155 160 171 171 189 197 208 210 205 203 204 218 216 209 221 221 234 241 226 218 213 217 225 189 225
352 355 350 346 178 169 162 157 156 153 151 151 149 146 145 147 151 155 160 170 185 189 191 198 199 196 194 195 198 201 212 213 214 233 237 232 216 212 217 221 212 236 226
351 359 360 13 159 156 153 152 152 151 151 149 146 146 144 148 150 154 161 173 175 181 185 181 184 183 189 195 194 196 211 213 224 243 228 224 212 201 202 207 209 213 197
347 353 4 19 151 156 154 153 151 150 147 147 147 145 146 150 152 155 159 162 167 165 171 173 177 181 187 188 191 208 213 219 221 221 233 234 208 198 204 212 203 196 178
334 345 358 354 154 162 158 155 153 151 148 149 148 147 148 150 150 152 154 161 161 163 171 172 171 178 177 180 195 211 209 197 188 222 276 233 213 211 195 198 183 180 157
323 336 345 326 175 166 161 157 154 152 151 150 148 148 151 149 149 152 159 163 162 163 166 163 165 173 177 182 199 200 178 170 162 157 147 87 191 185 187 185 181 163 159
316 321 324 261 192 172 163 160 157 156 154 150 152 154 153 150 152 155 161 165 165 166 168 169 166 167 169 184 183 171 163 164 165 163 171 127 115 166 187 188 178 167 177
306 310 306 269 196 177 167 161 160 158 156 154 154 156 157 154 155 158 169 174 176 171 169 169 163 176 178 170 180 182 160 168 182 187 185 169 177 162 171 183 181 178 184
300 305 307 247 189 176 166 163 164 162 159 156 154 156 156 156 158 166 173 180 177 168 168 164 163 166 171 183 208 182 181 175 171 178 192 209 199 179 163 161 159 174 174
295 298 296 222 184 174 168 166 167 165 161 158 153 151 155 155 160 169 174 171 171 169 167 170 172 173 186 201 193 148 190 168 160 167 210 217 225 209 186 175 162 166 161
296 295 287 191 181 172 168 168 169 166 163 160 157 153 154 155 155 169 168 162 170 172 166 175 173 187 196 202 204 171 156 172 178 185 205 218 215 208 195 194 186 173 176
295 289 236 187 179 171 170 170 169 168 164 161 158 156 156 156 159 156 166 160 162 163 163 165 178 193 175 199 184 182 181 187 191 200 203 197 189 190 196 199 195 188 169
291 272 197 181 177 172 171 171 171 167 164 161 158 157 155 152 155 152 159 167 164 165 165 162 165 164 182 190 175 186 204 211 222 204 195 190 179 182 199 190 188 183 170
284 236 184 178 175 173 174 171 170 167 165 163 162 162 162 160 162 155 151 168 170 163 166 179 180 175 181 187 186 213 218 219 224 209 183 178 165 164 160 161 161 173 166
271 200 180 174 171 173 174 172 168 167 166 165 166 168 166 168 167 164 154 170 183 170 174 179 182 182 189 189 197 204 191 179 191 186 173 166 148 145 147 154 162 170 168
224 183 177 171 172 171 172 171 167 168 168 168 170 171 172 168 167 162 163 169 190 180 177 171 179 180 189 195 204 200 182 174 174 163 159 153 148 148 140 151 168 168 168
176 170 167 168 169 168 170 170 169 170 171 172 176 177 177 173 170 171 165 176 185 171 162 172 172 177 192 194 188 174 162 161 152 159 158 148 150 153 151 155 161 167 170